O3B FM13 (43234 NORAD) Tracking and Keplerian Element Data

This shows tracking and keplerian element data for the satellite.

Feedback or suggestion? Click here.




ElementValue
Catalog43234
NameO3B FM13
Epoch Orbit1271
Epoch Day322.72014716
Epoch Year2018
RAAN41.47
Inclination0.0304
Eccentricity0.0004485
Argument of Perigee224.6521
Mean Anonmoly93.8335
Mean Motion5.001127
Decay Rate-1.7E-07
L11 43234U 18024D 18322.72014716 -.00000017 00000-0 00000-0 0 9994
L22 43234 0.0304 41.4700 0004485 224.6521 93.8335 5.00112700 12712

Live tracking and technical data element details for O3B FM13 (NORAD 43234). O3B FM13 can be tracked NOW for your location showing map with azimuth and elevation plus other details from your city location.

Track the satellite on the map from your city or location and see movement details for azimuth, elevation, latitude, longitude, range, height, and movement on the map or in text.







IsCatalogInMostPopularTable: catalog: 43234, numindb: 84
Update: records affected: 1



GetName: 43234 O3B FM13

Hit Count: updated at: Tue, 20 Nov 2018 07:54:22 GMT